sat.trackr.live / text

‹ back to catalog

SKYSAT-A

NORAD 39418 · 2013-066C

PAYLOAD ACTIVE UNKNOWN

§ Identity

Operator
Country
US
Launch date
2013-11-21
Launch site
DLS
Launch vehicle
Mass (kg)
RCS (m²)
0.31

Purposes: earth_obs

External: N2YO · Heavens-Above · Gunter

§ Orbital elements

Epoch: 2026-05-25T02:36:05.740128Z

Period
95.19 min
Inclination
97.3830°
Eccentricity
0.0022387
Mean motion
15.12822050 rev/d
Perigee alt
512.1 km
Apogee alt
543.1 km
Semi-major
6,905.7 km
B*
1.4425e-4
RAAN
195.2414°
Arg perigee
38.2414°
Mean anomaly
322.0400°
Rev number
68,499

§ Raw data

SKYSAT-A1 39418U 13066C   26145.10839977  .00002484  00000+0  14425-3 0  99992 39418  97.3830 195.2414 0022387  38.2414 322.0400 15.12822050684990

JSON: /api/v1/satellites/39418 · /tle

For live sub-satellite position, see the globe view (requires WebGL).

§ Visibility from observer

Set your observer location to see the next 7 days of passes ≥ 10°. The values pass through the URL so the page stays shareable.

No JS? Fill the form by hand. The geolocation button needs JavaScript.